[[{"header":{"parameterUnit":"m.s-1","parameterCategory":1,"la1":30.2991,"la2":30.254,"lo1":-89.0895,"lo2":-89.0444,"dy":0.0017,"dx":0.0017,"nx":28,"ny":28,"refTime":"2024-07-11T09:00:00:Z","depth":0,"parameterNumber":2,"parameterNumberName":"U-component_of_WINDS"},"data":[0,0,0,0,0,0,0,0,0,0,0,0,0,0,0,0,0,0,0,0,0,0,0,0,0,0,0,0,0,0,0,0,0,0,0,0,0,0,0,0,0,0,0,0,0,0,0,0,0,0,0,0,0,0,0,0,0,0,1.7379,1.7379,0,1.7396,1.7396,1.7396,1.732,1.7317,1.7315,1.7313,1.7331,1.7333,1.7336,0,0,0,0,0,0,0,0,0,0,0,0,0,1.728,1.7282,1.7379,1.7379,1.7379,1.7396,1.7396,1.7396,1.732,1.7317,1.7314,1.7312,1.733,1.7333,1.7336,0,0,0,0,0,0,0,0,0,0,0,0,0,1.7313,1.7283,1.7379,1.7343,1.734,1.7396,1.7396,1.7396,1.732,1.7317,1.7314,1.7311,1.7329,1.7333,1.7337,1.7427,0,0,1.7348,1.735,0,0,0,0,0,0,0,0,1.7311,1.7316,1.7348,1.7346,1.7342,1.7352,1.7367,1.7407,1.7321,1.7328,1.7313,1.7309,1.7341,1.7343,1.7354,1.7428,1.7429,1.7349,1.7351,1.7353,1.7354,0,0,0,0,0,0,0,1.7309,1.7315,1.7385,1.7349,1.7345,1.7326,1.7327,1.7375,1.7353,1.7327,1.7322,1.7325,1.7338,1.735,1.7354,1.7429,1.7349,1.7352,1.7354,1.7356,1.7576,1.758,0,0,0,0,0,0,1.7311,1.7314,1.7385,1.7386,1.7318,1.7331,1.7332,1.7352,1.7352,1.7349,1.7327,1.7321,1.7345,1.7349,1.7354,1.7458,1.7353,1.7356,1.7358,1.7573,1.7577,1.7581,0,0,0,0,0,0,1.7309,1.7318,1.7384,1.7348,1.7355,1.7336,1.736,1.7354,1.7366,1.7352,1.7348,1.7344,1.7343,1.7349,1.7409,1.7458,1.7358,1.7361,1.7569,1.7574,1.7579,1.7669,0,0,0,0,0,0,1.7307,1.7318,1.7353,1.735,1.7358,1.744,1.7363,1.7357,1.7373,1.7365,1.7366,1.7364,1.7341,1.7404,1.7413,1.7462,1.7364,1.7564,1.7571,1.7577,1.7662,1.7677,1.769,0,0,0,0,0,1.7303,1.7378,1.7355,1.7364,1.74,1.7443,1.7447,1.7419,1.7377,1.7411,1.7402,1.7364,1.7452,1.7411,1.742,1.7471,1.7561,1.7569,1.7577,1.7655,1.7674,1.769,0,0,0,0,0,0,1.7388,1.7377,1.7351,1.7427,1.7436,1.7429,1.7472,1.744,1.7461,1.7453,1.7417,1.7418,1.7485,1.7484,1.7438,1.7557,1.7499,1.7509,1.7555,1.7573,1.7587,1.7585,1.7368,0,0,0,0,0,1.7415,1.745,1.7439,1.7507,1.7513,1.7492,1.7509,1.7487,1.7495,1.7499,1.7494,1.7503,1.7533,1.7553,1.758,1.7662,1.766,1.7701,1.7715,1.7727,1.7736,1.7777,1.7795,1.7607,1.7607,1.7607,0,0,1.7472,1.7471,1.7495,1.7524,1.7528,1.7565,1.7496,1.7538,1.7564,1.7505,1.7561,1.7558,1.7566,1.7637,1.7668,1.7639,1.7787,1.7737,1.7746,1.7749,1.7787,1.7805,1.7821,1.7613,1.7612,1.7611,0,0,1.7594,1.7597,1.7653,1.7659,1.7666,1.7651,1.7665,1.7663,1.7658,1.7714,1.7669,1.7701,1.7753,1.776,1.777,1.7893,1.7858,1.7903,1.7976,1.8017,1.8032,1.8045,1.8087,1.8103,1.7912,1.7913,1.7913,0,1.7664,1.7717,1.7686,1.773,1.7744,1.7691,1.7747,1.7754,1.777,1.778,1.7747,1.7809,1.7811,1.7882,1.7912,1.7923,1.7936,1.7902,1.8032,1.8045,1.8056,1.8096,1.8112,1.7918,1.7917,1.7917,1.7916,0,1.7802,1.784,1.7884,1.7899,1.7918,1.7968,1.7943,1.7966,1.7942,1.793,1.7987,1.7987,1.8012,1.8027,1.8005,1.8095,1.8076,1.8038,1.7978,1.808,1.8117,1.8132,1.7925,1.7924,1.7922,1.7921,0,0,1.7978,1.7974,1.7991,1.7996,1.8,1.8028,1.8075,1.8099,1.8118,1.8131,1.8168,1.8213,1.8177,1.8189,1.8167,1.8203,1.8298,1.816,1.816,1.8184,1.8395,1.8422,1.8441,1.8275,1.8278,1.828,1.8394,0,1.8095,1.8175,1.8148,1.8229,1.8262,1.8212,1.8253,1.8259,1.825,1.8277,1.8266,1.8298,1.8249,1.8256,1.8289,1.8279,1.834,1.8271,1.8309,1.831,1.8307,1.846,1.849,1.8597,1.8408,1.8411,1.8412,0,1.8244,1.8261,1.8345,1.8341,1.8354,1.8391,1.841,1.8436,1.8442,1.8433,1.8445,1.8415,1.846,1.8401,1.8462,1.8416,1.843,1.8428,1.8431,1.8432,1.8367,1.8464,1.8631,1.8646,1.8435,1.8433,1.8432,0,1.8361,1.8406,1.8461,1.8468,1.8465,1.8492,1.8492,1.8494,1.851,1.8526,1.8535,1.8557,1.8569,1.8586,1.8562,1.8522,1.8626,1.8566,1.8619,1.8619,1.8642,1.8641,1.8812,1.8654,1.8654,1.8653,1.8653,0,1.8495,1.8548,1.8513,1.8547,1.8605,1.8573,1.863,1.8625,1.8627,1.8659,1.8618,1.8649,1.8615,1.8643,1.8625,1.8677,1.8683,1.8676,1.867,1.8679,1.8679,1.8686,1.8677,1.8658,1.8657,1.8656,1.8655,0,1.8635,1.8614,1.8671,1.8663,1.8663,1.8705,1.8698,1.8729,1.8716,1.8757,1.8765,1.8745,1.8775,1.8753,1.8783,1.877,1.8839,1.8823,1.8836,1.8832,1.8885,1.888,1.9065,1.9087,1.8917,1.8919,1.892,0,1.8721,1.876,1.8756,1.8774,1.8777,1.8806,1.8821,1.8791,1.8808,1.8817,1.8847,1.8873,1.8892,1.8942,1.893,1.8953,1.8936,1.9,1.8939,1.8946,1.8935,1.8932,1.8935,1.9012,1.9014,1.9015,1.9017,0,1.8875,1.8862,1.8885,1.8904,1.8923,1.8937,1.8948,1.8965,1.8934,1.8955,1.8985,1.9,1.9029,1.9056,1.9073,1.9073,1.904,1.9036,1.9049,1.9057,1.9063,1.9059,1.8868,1.9032,1.903,1.9029,1.9028,1.9028,1.8989,1.9021,1.9023,1.9049,1.9054,1.9064,1.9092,1.9082,1.9106,1.9127,1.9108,1.9144,1.9147,1.9167,1.9171,1.9198,1.9172,1.9191,1.9196,1.9201,1.9208,1.906,1.9202,1.9201,1.9201,1.92,1.92,0,1.9139,1.9137,1.9162,1.9177,1.9198,1.9164,1.9174,1.9193,1.9225,1.9231,1.925,1.9283,1.9308,1.9298,1.932,1.9343,1.9328,1.935,1.9347,1.9347,1.9231,1.9216,1.9361,1.9361,1.9361,1.9361,1.9361,1.9361,1.922,1.9271,1.9258,1.9311,1.9309,1.9342,1.9351,1.936,1.9364,1.9403,1.9423,1.9416,1.9415,1.9436,1.9457,1.9453,1.9462,1.9489,1.948,1.9371,1.9355,1.934,1.9326,1.9492,1.9492,1.9594,1.9595,1.9595]},{"header":{"parameterUnit":"m.s-1","parameterCategory":1,"la1":30.2991,"la2":30.254,"lo1":-89.0895,"lo2":-89.0444,"dy":0.0017,"dx":0.0017,"nx":28,"ny":28,"refTime":"2024-07-11T09:00:00:Z","depth":0,"parameterNumber":3,"parameterNumberName":"V-component_of_WINDS"},"data":[0,0,0,0,0,0,0,0,0,0,0,0,0,0,0,0,0,0,0,0,0,0,0,0,0,0,0,0,0,0,0,0,0,0,0,0,0,0,0,0,0,0,0,0,0,0,0,0,0,0,0,0,0,0,0,0,0,0,0.5279,0.5279,0,0.5306,0.5307,0.5307,0.5277,0.5276,0.5275,0.5274,0.5304,0.5306,0.5307,0,0,0,0,0,0,0,0,0,0,0,0,0,0.5199,0.5201,0.5279,0.5279,0.5279,0.5306,0.5307,0.5307,0.5277,0.5276,0.5274,0.5273,0.5303,0.5305,0.5308,0,0,0,0,0,0,0,0,0,0,0,0,0,0.5231,0.5202,0.5279,0.5268,0.5267,0.5306,0.5307,0.5307,0.5278,0.5276,0.5274,0.5272,0.5302,0.5305,0.5308,0.536,0,0,0.5316,0.5318,0,0,0,0,0,0,0,0,0.5229,0.5234,0.5269,0.5268,0.5268,0.5286,0.529,0.5325,0.5278,0.5274,0.5274,0.5272,0.5299,0.5302,0.5311,0.5361,0.5362,0.5317,0.5318,0.532,0.532,0,0,0,0,0,0,0,0.5227,0.5233,0.529,0.5269,0.5269,0.5261,0.5264,0.5296,0.5296,0.5274,0.5272,0.5275,0.5299,0.5309,0.5312,0.5363,0.5317,0.5319,0.5321,0.5322,0.5454,0.5455,0,0,0,0,0,0,0.5226,0.5231,0.5289,0.529,0.5244,0.5264,0.5267,0.5282,0.5295,0.5296,0.5277,0.5274,0.5305,0.5309,0.5313,0.5373,0.532,0.5322,0.5324,0.5452,0.5454,0.5456,0,0,0,0,0,0,0.5225,0.5232,0.5288,0.526,0.5267,0.5267,0.5285,0.5284,0.5294,0.5298,0.5297,0.5287,0.5304,0.5309,0.5348,0.5374,0.5323,0.5326,0.545,0.5452,0.5455,0.5494,0,0,0,0,0,0,0.5223,0.5231,0.5251,0.5261,0.5268,0.5322,0.5286,0.5285,0.5298,0.5295,0.5307,0.5308,0.5303,0.5344,0.535,0.5377,0.5328,0.5447,0.5451,0.5454,0.5491,0.5498,0.5504,0,0,0,0,0,0.522,0.5263,0.5253,0.526,0.5293,0.5324,0.5328,0.5321,0.5301,0.532,0.5322,0.5307,0.5369,0.5348,0.5355,0.5383,0.5446,0.545,0.5454,0.5488,0.5497,0.5504,0,0,0,0,0,0,0.5258,0.5264,0.5253,0.53,0.5311,0.5319,0.5344,0.5331,0.5349,0.5345,0.5336,0.5339,0.538,0.5385,0.5361,0.5432,0.5404,0.541,0.5427,0.5436,0.5443,0.5441,0.5331,0,0,0,0,0,0.5271,0.5295,0.5299,0.534,0.5346,0.5344,0.5357,0.535,0.5362,0.5367,0.5372,0.5385,0.5406,0.5421,0.5442,0.5491,0.5492,0.5513,0.552,0.5526,0.5531,0.5555,0.5564,0.5469,0.5469,0.5469,0,0,0.5301,0.5306,0.5323,0.5348,0.5356,0.5381,0.5349,0.5377,0.5395,0.5372,0.5408,0.5412,0.5425,0.5468,0.5488,0.5474,0.5557,0.5531,0.5535,0.5538,0.556,0.5569,0.5577,0.5472,0.5472,0.5471,0,0,0.5366,0.5373,0.5407,0.5415,0.5427,0.5424,0.5432,0.5441,0.5442,0.5478,0.546,0.5481,0.552,0.5529,0.5539,0.5604,0.559,0.5611,0.5647,0.567,0.5678,0.5684,0.5706,0.5715,0.5616,0.5616,0.5616,0,0.54,0.5437,0.5426,0.5454,0.5465,0.5444,0.5477,0.5486,0.5504,0.5512,0.5496,0.5542,0.555,0.5594,0.5609,0.5618,0.5626,0.561,0.5677,0.5684,0.569,0.5711,0.5719,0.5618,0.5618,0.5618,0.5618,0,0.5478,0.5503,0.5529,0.5545,0.5559,0.559,0.5584,0.5599,0.559,0.5589,0.5625,0.5632,0.5653,0.5663,0.5655,0.5705,0.5696,0.5679,0.5651,0.5701,0.5721,0.5729,0.5622,0.5621,0.562,0.562,0,0,0.5571,0.5578,0.5588,0.5594,0.5604,0.5623,0.5652,0.5671,0.5683,0.5696,0.572,0.5751,0.5734,0.5745,0.5738,0.5759,0.5808,0.5739,0.5739,0.5751,0.5862,0.5875,0.5884,0.5798,0.58,0.5801,0.586,0,0.5635,0.5685,0.5675,0.5723,0.5745,0.5723,0.5748,0.5757,0.5756,0.5774,0.5773,0.5795,0.5772,0.5778,0.5797,0.5798,0.583,0.5793,0.582,0.5821,0.5818,0.5895,0.5909,0.5965,0.5868,0.5869,0.587,0,0.5718,0.5732,0.5782,0.5785,0.5794,0.5817,0.5832,0.585,0.5858,0.5856,0.5866,0.5854,0.5882,0.5853,0.5891,0.5866,0.5876,0.5877,0.5879,0.5882,0.5849,0.5899,0.5983,0.5991,0.5882,0.5882,0.5881,0,0.578,0.581,0.5844,0.585,0.5855,0.5871,0.5874,0.588,0.5891,0.5905,0.5911,0.5928,0.5937,0.595,0.5942,0.5922,0.5981,0.5951,0.5979,0.598,0.5994,0.5993,0.608,0.6,0.6,0.6,0.6,0,0.5853,0.5885,0.5871,0.5892,0.5925,0.5913,0.5947,0.5947,0.5952,0.5972,0.5954,0.5973,0.5962,0.598,0.5974,0.6005,0.601,0.6008,0.6006,0.601,0.601,0.6017,0.6013,0.6002,0.6002,0.6001,0.6001,0,0.5928,0.592,0.5955,0.5956,0.5957,0.5981,0.5982,0.6001,0.5997,0.6022,0.6028,0.6022,0.6042,0.6035,0.6057,0.6053,0.6092,0.6086,0.609,0.6088,0.6116,0.6113,0.6211,0.6223,0.6135,0.6136,0.6137,0,0.5976,0.5999,0.6001,0.6012,0.6016,0.6035,0.6045,0.6033,0.6044,0.6053,0.6071,0.6089,0.6103,0.6135,0.6133,0.6149,0.6142,0.6175,0.6145,0.6147,0.6142,0.6141,0.6143,0.6182,0.6183,0.6184,0.6184,0,0.6061,0.6055,0.607,0.6083,0.6095,0.6105,0.6114,0.6124,0.6112,0.6125,0.6145,0.6155,0.6176,0.6193,0.6207,0.621,0.6195,0.6193,0.6201,0.6205,0.6206,0.6205,0.6106,0.6192,0.6191,0.6191,0.619,0.619,0.6123,0.6142,0.6145,0.6162,0.6166,0.6174,0.6191,0.6188,0.6203,0.6219,0.621,0.6232,0.6237,0.6254,0.6258,0.6275,0.6262,0.6273,0.6276,0.6279,0.6282,0.6203,0.6278,0.6277,0.6277,0.6277,0.6277,0,0.6207,0.6207,0.6222,0.6233,0.6246,0.6229,0.6236,0.6248,0.6267,0.6273,0.6286,0.6307,0.6323,0.6321,0.6336,0.635,0.6343,0.6354,0.6353,0.6353,0.6293,0.6285,0.6359,0.6359,0.6359,0.6359,0.6359,0.6359,0.6252,0.6282,0.6275,0.6307,0.6307,0.6327,0.6333,0.6339,0.6343,0.6367,0.6379,0.6377,0.638,0.6394,0.6407,0.6406,0.6413,0.6426,0.6422,0.6366,0.6358,0.635,0.6343,0.6427,0.6428,0.6481,0.6482,0.6482]}]]